[[{"header":{"parameterUnit":"m.s-1","parameterCategory":1,"la1":30.2991,"la2":30.254,"lo1":-89.0895,"lo2":-89.0444,"dy":0.0017,"dx":0.0017,"nx":28,"ny":28,"refTime":"2024-02-24T03:00:00:Z","depth":0,"parameterNumber":2,"parameterNumberName":"U-component_of_WINDS"},"data":[0,0,0,0,0,0,0,0,0,0,0,0,0,0,0,0,0,0,0,0,0,0,0,0,0,0,0,0,0,0,0,0,0,0,0,0,0,0,0,0,0,0,0,0,0,0,0,0,0,0,0,0,0,0,0,0,0,0,-1.3194,-1.3194,0,-1.3171,-1.3171,-1.317,-1.3143,-1.3142,-1.3142,-1.3141,-1.3118,-1.3118,-1.3118,0,0,0,0,0,0,0,0,0,0,0,0,0,-1.3214,-1.3214,-1.3194,-1.3194,-1.3193,-1.3171,-1.3171,-1.317,-1.3143,-1.3142,-1.3142,-1.3141,-1.3118,-1.3118,-1.3118,0,0,0,0,0,0,0,0,0,0,0,0,0,-1.32,-1.3214,-1.3194,-1.3177,-1.3175,-1.3171,-1.3171,-1.317,-1.3143,-1.3142,-1.3142,-1.3141,-1.3118,-1.3118,-1.3117,-1.3128,0,0,-1.3116,-1.3116,0,0,0,0,0,0,0,0,-1.3201,-1.3199,-1.318,-1.3178,-1.3176,-1.3159,-1.3169,-1.3156,-1.3143,-1.3155,-1.3141,-1.3141,-1.3132,-1.3131,-1.3128,-1.3127,-1.3126,-1.3116,-1.3116,-1.3116,-1.3116,0,0,0,0,0,0,0,-1.3202,-1.32,-1.3185,-1.3179,-1.3177,-1.3171,-1.3168,-1.3167,-1.3148,-1.3154,-1.3152,-1.315,-1.3131,-1.3128,-1.3127,-1.3126,-1.3116,-1.3116,-1.3116,-1.3116,-1.3133,-1.3133,0,0,0,0,0,0,-1.3205,-1.3201,-1.3185,-1.3184,-1.3187,-1.3171,-1.3168,-1.3165,-1.3147,-1.3144,-1.315,-1.3148,-1.3129,-1.3127,-1.3126,-1.3137,-1.3116,-1.3116,-1.3116,-1.3132,-1.3133,-1.3134,0,0,0,0,0,0,-1.3206,-1.3204,-1.3186,-1.3192,-1.3189,-1.3171,-1.3168,-1.3165,-1.3162,-1.3145,-1.3141,-1.3151,-1.3128,-1.3127,-1.3128,-1.3136,-1.3116,-1.3115,-1.3131,-1.3132,-1.3133,-1.3159,0,0,0,0,0,0,-1.3207,-1.3205,-1.3208,-1.3192,-1.3189,-1.3189,-1.3169,-1.3165,-1.3161,-1.3159,-1.3144,-1.3141,-1.3128,-1.3129,-1.3128,-1.3135,-1.3115,-1.313,-1.3132,-1.3133,-1.3158,-1.3161,-1.3164,0,0,0,0,0,-1.3207,-1.3217,-1.3209,-1.3207,-1.3193,-1.3189,-1.3187,-1.3172,-1.3162,-1.3166,-1.3155,-1.3141,-1.3135,-1.3129,-1.3128,-1.3135,-1.313,-1.3131,-1.3133,-1.3156,-1.316,-1.3164,0,0,0,0,0,0,-1.3234,-1.3214,-1.3205,-1.3209,-1.3201,-1.3184,-1.3188,-1.3177,-1.3171,-1.3169,-1.315,-1.3147,-1.3151,-1.3143,-1.3136,-1.3144,-1.3131,-1.3132,-1.3149,-1.3153,-1.3156,-1.3157,-1.3115,0,0,0,0,0,-1.3241,-1.3239,-1.3221,-1.3227,-1.3223,-1.3207,-1.3204,-1.3193,-1.3184,-1.318,-1.3169,-1.3161,-1.3157,-1.3155,-1.315,-1.3157,-1.3153,-1.3161,-1.3165,-1.3167,-1.3168,-1.3171,-1.3174,-1.3138,-1.3138,-1.3138,0,0,-1.3254,-1.3243,-1.3243,-1.3232,-1.3224,-1.3223,-1.3204,-1.3203,-1.3202,-1.318,-1.318,-1.3172,-1.3161,-1.3165,-1.3167,-1.3159,-1.3177,-1.3169,-1.3171,-1.3171,-1.3173,-1.3176,-1.3179,-1.3139,-1.3139,-1.3139,0,0,-1.3277,-1.3268,-1.3272,-1.3264,-1.3253,-1.3242,-1.3243,-1.3228,-1.3222,-1.3222,-1.3205,-1.3204,-1.3198,-1.319,-1.3186,-1.3207,-1.3194,-1.3206,-1.3222,-1.3225,-1.3228,-1.323,-1.3237,-1.3239,-1.3207,-1.3208,-1.3208,0,-1.3294,-1.3291,-1.3275,-1.3275,-1.3271,-1.3251,-1.3255,-1.3248,-1.3236,-1.3234,-1.3226,-1.3218,-1.3209,-1.3211,-1.3216,-1.3214,-1.3214,-1.3207,-1.3229,-1.3231,-1.3233,-1.3239,-1.3242,-1.3209,-1.3209,-1.3209,-1.3208,0,-1.3313,-1.3311,-1.3315,-1.3304,-1.33,-1.3302,-1.3286,-1.3284,-1.3274,-1.3264,-1.3264,-1.3254,-1.3246,-1.3246,-1.3236,-1.3247,-1.3242,-1.3232,-1.3218,-1.3238,-1.3243,-1.3246,-1.3211,-1.321,-1.321,-1.321,0,0,-1.3351,-1.3331,-1.3332,-1.3327,-1.3313,-1.3311,-1.3312,-1.3305,-1.3304,-1.3297,-1.3297,-1.3292,-1.3282,-1.3277,-1.3267,-1.3269,-1.3286,-1.3258,-1.3258,-1.3263,-1.3296,-1.3303,-1.3306,-1.3278,-1.3278,-1.3278,-1.3296,0,-1.3371,-1.3371,-1.3356,-1.336,-1.3358,-1.334,-1.3341,-1.3333,-1.3324,-1.3321,-1.3311,-1.3307,-1.3295,-1.3292,-1.3294,-1.3283,-1.3292,-1.3282,-1.3277,-1.3277,-1.3279,-1.3309,-1.3316,-1.3334,-1.3298,-1.3299,-1.3299,0,-1.3393,-1.3387,-1.339,-1.3376,-1.3375,-1.3376,-1.3368,-1.3366,-1.3356,-1.3349,-1.3344,-1.3331,-1.3332,-1.3319,-1.3319,-1.3312,-1.331,-1.3304,-1.3304,-1.3302,-1.3288,-1.3307,-1.3339,-1.3341,-1.3302,-1.3302,-1.3302,0,-1.3419,-1.3412,-1.3413,-1.3409,-1.3393,-1.3394,-1.3387,-1.3377,-1.3373,-1.3367,-1.3364,-1.3358,-1.3355,-1.335,-1.3337,-1.3329,-1.3338,-1.3324,-1.3332,-1.3332,-1.3333,-1.3333,-1.3364,-1.3334,-1.3333,-1.3333,-1.3333,0,-1.3442,-1.3445,-1.3424,-1.3425,-1.3427,-1.3411,-1.3415,-1.3406,-1.3397,-1.3396,-1.3381,-1.338,-1.3362,-1.336,-1.3349,-1.335,-1.3349,-1.3343,-1.334,-1.3344,-1.3344,-1.3341,-1.3339,-1.3334,-1.3334,-1.3334,-1.3334,0,-1.3471,-1.3458,-1.3458,-1.3442,-1.3439,-1.3441,-1.3428,-1.3428,-1.3418,-1.3417,-1.3416,-1.34,-1.3396,-1.3382,-1.3375,-1.3368,-1.3372,-1.3367,-1.3375,-1.3373,-1.3381,-1.338,-1.341,-1.3413,-1.3381,-1.3382,-1.3382,0,-1.3486,-1.3488,-1.3473,-1.347,-1.3464,-1.3461,-1.3458,-1.3442,-1.3439,-1.3429,-1.343,-1.3425,-1.3419,-1.3414,-1.3402,-1.3396,-1.339,-1.3401,-1.3389,-1.3393,-1.3389,-1.3389,-1.3389,-1.3404,-1.3404,-1.3404,-1.3405,0,-1.3514,-1.3507,-1.3502,-1.3495,-1.3491,-1.3485,-1.3478,-1.3477,-1.346,-1.3458,-1.3453,-1.3449,-1.3442,-1.3436,-1.3429,-1.3422,-1.341,-1.3409,-1.341,-1.3413,-1.3418,-1.3414,-1.3381,-1.3408,-1.3408,-1.3407,-1.3407,-1.3407,-1.3535,-1.3536,-1.3525,-1.352,-1.3514,-1.3507,-1.3506,-1.3496,-1.3492,-1.3485,-1.3476,-1.3473,-1.3463,-1.3452,-1.3446,-1.3443,-1.3437,-1.3439,-1.3439,-1.344,-1.3441,-1.3419,-1.3442,-1.3442,-1.3442,-1.3441,-1.3441,0,-1.3561,-1.3554,-1.3549,-1.354,-1.3536,-1.3526,-1.3518,-1.3515,-1.3512,-1.3504,-1.3499,-1.3494,-1.3489,-1.3477,-1.3471,-1.3471,-1.3466,-1.347,-1.3469,-1.3468,-1.3447,-1.3446,-1.3474,-1.3474,-1.3474,-1.3474,-1.3474,-1.3474,-1.3574,-1.3574,-1.3566,-1.3563,-1.3555,-1.3551,-1.3547,-1.3541,-1.3535,-1.353,-1.3525,-1.3518,-1.3508,-1.3501,-1.3496,-1.3493,-1.3491,-1.3497,-1.3491,-1.3472,-1.3469,-1.3466,-1.3465,-1.3497,-1.3497,-1.3512,-1.3512,-1.3512]},{"header":{"parameterUnit":"m.s-1","parameterCategory":1,"la1":30.2991,"la2":30.254,"lo1":-89.0895,"lo2":-89.0444,"dy":0.0017,"dx":0.0017,"nx":28,"ny":28,"refTime":"2024-02-24T03:00:00:Z","depth":0,"parameterNumber":3,"parameterNumberName":"V-component_of_WINDS"},"data":[0,0,0,0,0,0,0,0,0,0,0,0,0,0,0,0,0,0,0,0,0,0,0,0,0,0,0,0,0,0,0,0,0,0,0,0,0,0,0,0,0,0,0,0,0,0,0,0,0,0,0,0,0,0,0,0,0,0,2.4992,2.4991,0,2.4979,2.4979,2.4979,2.4966,2.4966,2.4966,2.4966,2.4952,2.4951,2.4951,0,0,0,0,0,0,0,0,0,0,0,0,0,2.5005,2.5005,2.4992,2.4991,2.4991,2.4979,2.4979,2.4978,2.4967,2.4966,2.4966,2.4966,2.4952,2.4951,2.4951,0,0,0,0,0,0,0,0,0,0,0,0,0,2.4997,2.5005,2.4992,2.4984,2.4983,2.4979,2.4979,2.4978,2.4967,2.4966,2.4966,2.4966,2.4952,2.4951,2.4951,2.4953,0,0,2.495,2.495,0,0,0,0,0,0,0,0,2.4997,2.4996,2.4985,2.4984,2.4983,2.4974,2.4978,2.497,2.4967,2.4973,2.4966,2.4966,2.4959,2.4958,2.4956,2.4953,2.4952,2.495,2.495,2.495,2.4949,0,0,0,0,0,0,0,2.4998,2.4997,2.4986,2.4985,2.4984,2.4981,2.4979,2.4977,2.4967,2.4972,2.4971,2.497,2.4959,2.4957,2.4956,2.4952,2.495,2.495,2.4949,2.4949,2.4951,2.4951,0,0,0,0,0,0,2.5,2.4997,2.4987,2.4986,2.499,2.4981,2.4979,2.4977,2.4967,2.4966,2.497,2.497,2.4957,2.4956,2.4955,2.4958,2.495,2.4949,2.4949,2.495,2.4951,2.4951,0,0,0,0,0,0,2.5,2.4999,2.4987,2.4991,2.499,2.4981,2.4979,2.4977,2.4975,2.4966,2.4964,2.497,2.4957,2.4956,2.4954,2.4957,2.4949,2.4949,2.495,2.4951,2.4951,2.4963,0,0,0,0,0,0,2.5,2.4999,2.5,2.4992,2.499,2.4987,2.4979,2.4977,2.4975,2.4974,2.4965,2.4963,2.4957,2.4955,2.4954,2.4957,2.4948,2.495,2.495,2.4951,2.4963,2.4964,2.4965,0,0,0,0,0,2.5001,2.5003,2.5,2.4999,2.499,2.4987,2.4986,2.4979,2.4975,2.4976,2.497,2.4964,2.4957,2.4955,2.4954,2.4956,2.495,2.495,2.4951,2.4962,2.4964,2.4965,0,0,0,0,0,0,2.5011,2.5002,2.4998,2.4998,2.4993,2.4985,2.4985,2.4981,2.4977,2.4976,2.4967,2.4965,2.4965,2.496,2.4958,2.4959,2.4953,2.4953,2.4962,2.4963,2.4965,2.4966,2.4948,0,0,0,0,0,2.5013,2.5012,2.5003,2.5004,2.5002,2.4994,2.4992,2.4988,2.4982,2.498,2.4974,2.4969,2.4966,2.4964,2.4961,2.4962,2.496,2.4963,2.4965,2.4966,2.4966,2.4968,2.4969,2.4953,2.4953,2.4953,0,0,2.5018,2.5013,2.5012,2.5006,2.5002,2.5,2.4993,2.4991,2.499,2.498,2.4978,2.4974,2.4968,2.4968,2.4968,2.4964,2.4971,2.4967,2.4968,2.4968,2.4969,2.497,2.4972,2.4953,2.4953,2.4953,0,0,2.5025,2.5021,2.5021,2.5018,2.5012,2.5007,2.5008,2.5,2.4997,2.4996,2.4989,2.4987,2.4982,2.4978,2.4976,2.4984,2.4978,2.4983,2.499,2.4992,2.4993,2.4994,2.4998,2.4999,2.4983,2.4983,2.4983,0,2.5031,2.5029,2.5022,2.5021,2.5019,2.5011,2.5012,2.5009,2.5002,2.5001,2.4998,2.4992,2.4987,2.4987,2.4989,2.4987,2.4987,2.4984,2.4993,2.4994,2.4995,2.4999,2.5,2.4984,2.4984,2.4984,2.4984,0,2.5037,2.5036,2.5037,2.5032,2.503,2.503,2.5023,2.5022,2.5018,2.5013,2.5013,2.5007,2.5003,2.5002,2.4997,2.5002,2.5,2.4995,2.4989,2.4998,2.5001,2.5002,2.4985,2.4985,2.4985,2.4984,0,0,2.505,2.5042,2.5043,2.5041,2.5035,2.5034,2.5034,2.5031,2.503,2.5026,2.5026,2.5023,2.5019,2.5016,2.5011,2.5012,2.502,2.5007,2.5007,2.501,2.5026,2.503,2.5032,2.5017,2.5017,2.5017,2.5027,0,2.5057,2.5057,2.5051,2.5053,2.5052,2.5045,2.5045,2.5042,2.5038,2.5036,2.5032,2.503,2.5024,2.5023,2.5024,2.5019,2.5023,2.5018,2.5017,2.5017,2.5019,2.5033,2.5037,2.5047,2.5028,2.5028,2.5028,0,2.5064,2.5062,2.5064,2.5059,2.5059,2.5059,2.5057,2.5055,2.5052,2.5049,2.5047,2.5041,2.5041,2.5036,2.5036,2.5033,2.5032,2.503,2.503,2.503,2.5023,2.5034,2.5049,2.5051,2.503,2.503,2.503,0,2.5074,2.5072,2.5073,2.5072,2.5066,2.5067,2.5064,2.506,2.5059,2.5057,2.5056,2.5054,2.5052,2.5051,2.5045,2.5041,2.5046,2.504,2.5045,2.5045,2.5046,2.5046,2.5062,2.5045,2.5045,2.5045,2.5045,0,2.5083,2.5084,2.5078,2.5078,2.508,2.5074,2.5076,2.5073,2.507,2.507,2.5064,2.5064,2.5056,2.5056,2.5051,2.5053,2.5052,2.505,2.5049,2.5051,2.5051,2.5051,2.505,2.5045,2.5045,2.5045,2.5045,0,2.5094,2.509,2.5091,2.5086,2.5085,2.5086,2.5082,2.5083,2.5079,2.508,2.508,2.5074,2.5073,2.5067,2.5065,2.5062,2.5066,2.5063,2.5067,2.5067,2.5072,2.5072,2.5088,2.5091,2.5071,2.5072,2.5072,0,2.51,2.5101,2.5097,2.5097,2.5096,2.5095,2.5095,2.5089,2.5089,2.5086,2.5087,2.5086,2.5085,2.5084,2.508,2.5078,2.5076,2.5082,2.5076,2.5078,2.5077,2.5077,2.5078,2.5083,2.5084,2.5084,2.5084,0,2.5111,2.5109,2.5109,2.5108,2.5108,2.5107,2.5105,2.5105,2.5099,2.5099,2.5099,2.5098,2.5097,2.5097,2.5095,2.5092,2.5087,2.5086,2.5087,2.5089,2.5092,2.5092,2.5072,2.5086,2.5085,2.5085,2.5085,2.5085,2.512,2.5122,2.512,2.512,2.5118,2.5117,2.5118,2.5115,2.5115,2.5114,2.5111,2.5112,2.5109,2.5106,2.5105,2.5105,2.5102,2.5103,2.5104,2.5105,2.5106,2.5092,2.5105,2.5105,2.5105,2.5104,2.5104,0,2.5132,2.5131,2.5131,2.513,2.513,2.5126,2.5125,2.5125,2.5126,2.5124,2.5124,2.5125,2.5124,2.5121,2.512,2.5121,2.5119,2.5122,2.5122,2.5121,2.5108,2.5108,2.5123,2.5123,2.5123,2.5123,2.5123,2.5123,2.5138,2.514,2.5139,2.5141,2.5139,2.5141,2.514,2.514,2.5139,2.514,2.514,2.5138,2.5136,2.5135,2.5135,2.5134,2.5135,2.5138,2.5136,2.5124,2.5122,2.512,2.512,2.5138,2.5138,2.5149,2.5149,2.5149]}]]